Location: Newark
(13.0000°N, 105.0000°E)
Time: 20:34:02
(UTC+00:00)

OTV 5 (USA 277) - Pass Details

Date: 24 October 2019
Orbit: 310 x 324 km, 54.5° (Epoch: 17 October)

Event Time Altitude Azimuth Distance (km) Brightness Sun altitude
Exits shadow 21:14:18 13° 52° (NE) 1,085 ? -24.3°
Maximum altitude 21:14:22 13° 53° (NE) 1,085 ? -24.2°
Drops below altitude 10° 21:15:38 10° 81° (E) 1,213 ? -23.9°
Sets 21:18:23 0° 113° (ESE) 2,038 ? -23.3°
